Location: *
(49.0044°N, 9.5056°E)
Time: 18:32:16
(UTC+00:00)

Cosmos 1437 Rocket - Pass Details

Date: 22 September 2019
Orbit: 506 x 563 km, 81.2° (Epoch: 21 October)

Event Time Altitude Azimuth Distance (km) Brightness Sun altitude
Rises 18:40:51 0° 353° (N) 2,638 6.6 -13.8°
Reaches altitude 10° 18:43:04 10° 359° (N) 1,741 5.6 -14.1°
Maximum altitude 18:46:45 46° 74° (ENE) 695 2.9 -14.7°
Enters shadow 18:48:31 26° 133° (SE) 1,034 3.7 -15.0°
